Regional Weather Roundup
Issued by NWS

Home | Current Version | Previous Version | Text Only | Print | Product List | Glossary Off
Versions: 1 2 3 4 5 6 7 8 9 10 11 12 13 14 15 16 17 18 19 20 21 22 23 24 25 26 27 28 29 30 31 32 33 34 35 36 37 38 39 40 41 42 43 44 45 46 47 48 49 50

000
ASUS43 KLMK 300302
RWRKY
KENTUCKY REGIONAL WEATHER ROUNDUP
NATIONAL WEATHER SERVICE LOUISVILLE KY
1100 PM EDT FRI APR 29 2016

NOTE "FAIR" INDICATES FEW OR NO CLOUDS BELOW 12,000 FEET
WITH NO SIGNIFICANT WEATHER AND/OR OBSTRUCTIONS TO VISIBILITY.

KYZ001>023-026-027-061>063-070>075-300400-
WESTERN AND SOUTH CENTRAL KENTUCKY

CITY           SKY/WX    TMP DP  RH WIND       PRES   REMARKS
PADUCAH        CLOUDY    62  58  86 E7        29.93R
HENDERSON      CLOUDY    63  50  63 E8        29.98R
OWENSBORO      CLOUDY    65  54  67 E7        30.00R
HOPKINSVILLE   CLOUDY    64  61  90 E9        29.96R
BOWLING GREEN  CLOUDY    65  60  84 NE7       29.99S
GLASGOW        NOT AVBL
$$

KYZ024-025-028>034-038-045-046-053-300400-
NORTH CENTRAL KENTUCKY

CITY           SKY/WX    TMP DP  RH WIND       PRES   REMARKS
LOUISVILLE/SDF CLOUDY    67  49  52 NE9       30.04S
LOUISVILLE/LOU CLOUDY    66  50  56 NE10      30.04F
FORT KNOX      CLOUDY    64  52  64 NE6       30.00S
$$

KYZ035>037-039>044-047>052-055>060-089>105-300400-
NORTHEAST KENTUCKY

CITY           SKY/WX    TMP DP  RH WIND       PRES   REMARKS
LEXINGTON      LGT RAIN  62  51  67 N14       30.06S
COVINGTON      CLOUDY    60  50  69 NE8       30.09R
FRANKFORT      CLOUDY    63  50  62 NE8       30.06R
$$

KYZ054-064>069-076>088-106>120-300400-
SOUTHEAST KENTUCKY

CITY           SKY/WX    TMP DP  RH WIND       PRES   REMARKS
JACKSON        CLOUDY    63  49  60 CALM      30.08R
LONDON         CLOUDY    66  51  58 SW5       30.06R
SOMERSET       NOT AVBL
MIDDLESBORO    NOT AVBL
MONTICELLO     CLOUDY    65  57  75 W3        30.04R
$$





USA.gov is the U.S. government's official web portal to all federal, state and local government web resources and services.